This demonstration page uses our WeatherBlox Daily Observations layout. Learn more.

Left ArrowRight Arrow

34.16533, -84.80231

Hourly Observations for March 14, 2020

Temp ( °F °C ) Dew Point ( °F °C ) Humidity (%) Winds ( mph kmh ) Pressure ( in mb ) Visibility ( mi km ) Precip ( " mm )
12:53 am 00:53 Cloudy 59 15 48 8.9 67 67 Calm 30.22 1024 10 16 0.00 0.00
1:53 am 01:53 Cloudy 57 13.9 47 8.3 69 69 Calm 30.22 1023 10 16 0.00 0.00
2:53 am 02:53 Cloudy 58 14.4 47 8.3 67 67 Calm 30.23 1024 10 16 0.00 0.00
3:53 am 03:53 Partly Cloudy 55 12.8 45 7.2 69 69 Calm 30.22 1024 10 16 0.00 0.00
4:53 am 04:53 Mostly Clear 54 12.2 46 7.8 75 75 Calm 30.24 1024 10 16 0.00 0.00
5:53 am 05:53 Clear 52 11.1 45 7.2 77 77 Calm 30.24 1024 10 16 0.00 0.00
6:53 am 06:53 Clear 51 10.6 44 6.7 77 77 WSW 3 6 30.25 1024 10 16 0.00 0.00
7:53 am 07:53 Sunny 51 10.6 45 7.2 80 80 Calm 30.25 1024 10 16 0.00 0.00
8:53 am 08:53 Mostly Cloudy 54 12.2 46 7.8 75 75 Calm 30.28 1025 10 16 0.00 0.00
9:53 am 09:53 Cloudy 55 12.8 44 6.7 67 67 Calm 30.29 1026 10 16 0.00 0.00
10:53 am 10:53 Mostly Cloudy 56 13.3 47 8.3 72 72 Calm 30.31 1026 10 16 0.00 0.00
11:45 am 11:45 Mostly Cloudy 59 15 51 10.6 75 75 ESE 3 6 30.32 1027 10 16 0.00 0.00
11:53 am 11:53 Mostly Cloudy 60 15.6 51 10.6 72 72 ENE 3 6 30.30 1026 10 16 0.00 0.00
12:53 pm 12:53 Partly Cloudy with Light Rain 64 17.8 56 13.3 75 75 E 3 6 30.27 1025 10 16 0.00 0.00
1:53 pm 13:53 Mostly Cloudy 67 19.4 55 12.8 66 66 NE 7 11 30.27 1025 10 16 0.00 0.00
2:53 pm 14:53 Mostly Sunny 70 21.1 56 13.3 61 61 VRB 6 9 30.23 1024 10 16 0.00 0.00
3:53 pm 15:53 Sunny 71 21.7 56 13.3 59 59 ENE 8 13 30.20 1023 10 16 0.00 0.00
4:53 pm 16:53 Sunny 72 22.2 55 12.8 55 55 NNE 9 15 30.19 1023 10 16 0.00 0.00
5:53 pm 17:53 Sunny 70 21.1 55 12.8 59 59 ENE 7 11 30.19 1022 10 16 0.00 0.00
6:53 pm 18:53 Sunny 68 20 54 12.2 61 61 NE 6 9 30.20 1023 10 16 0.00 0.00
7:53 pm 19:53 Clear 64 17.8 53 11.7 68 68 NE 5 7 30.22 1023 10 16 0.00 0.00
8:53 pm 20:53 Clear 62 16.7 52 11.1 70 70 E 5 7 30.24 1024 10 16 0.00 0.00
9:53 pm 21:53 Clear 61 16.1 51 10.6 70 70 E 6 9 30.25 1024 10 16 0.00 0.00
10:53 pm 22:53 Clear 60 15.6 50 10 70 70 E 6 9 30.26 1025 10 16 0.00 0.00
11:53 pm 23:53 Clear 59 15 50 10 72 72 E 3 6 30.27 1025 10 16 0.00 0.00

Powered by AerisWeather